EW8073 Weather Reports


Display with metric or nautical units.
time (UTC)temp
F
wind
direction
speed
MPH
gust
MPH
rain 1hr
in
rain 24hr
in
rain mn
in
humidity
%
barometer
mb
20260906212110 89 75 0.0 0.0 0.00 0.00 0.00 36 1014.3
20260906211603 89 75 0.0 0.0 0.00 0.00 0.00 40 1014.4
20260906211056 90 77 0.0 0.0 0.00 0.00 0.00 40 1014.4
20260906210557 89 80 0.0 1.0 0.00 0.00 0.00 39 1014.5
20260906210055 89 343 0.0 1.0 0.00 0.00 0.00 39 1014.7
20260906205555 89 98 0.0 2.0 0.00 0.00 0.00 38 1014.8
20260906205056 89 343 0.0 2.0 0.00 0.00 0.00 39 1015.0
20260906204553 89 71 0.0 0.0 0.00 0.00 0.00 41 1015.0
20260906204050 89 74 0.0 0.0 0.00 0.00 0.00 41 1015.1
20260906203549 89 76 0.0 0.0 0.00 0.00 0.00 41 1015.1
20260906203049 88 76 0.0 1.0 0.00 0.00 0.00 44 1015.2
20260906202549 88 105 0.0 1.0 0.00 0.00 0.00 42 1015.2
20260906201545 87 301 0.0 0.0 0.00 0.00 0.00 49 1015.3
20260906201043 86 301 0.0 0.0 0.00 0.00 0.00 46 1015.4
20260906200542 86 22 0.0 0.0 0.00 0.00 0.00 47 1015.5
20260906200039 86 317 0.0 0.0 0.00 0.00 0.00 46 1015.5
20260906195537 85 323 0.0 0.0 0.00 0.00 0.00 47 1015.7
20260906195034 84 310 0.0 0.0 0.00 0.00 0.00 46 1015.8
20260906194533 84 308 0.0 1.0 0.00 0.00 0.00 46 1015.8
20260906194033 84 190 0.0 1.0 0.00 0.00 0.00 46 1015.9
20260906193030 83 96 0.0 0.0 0.00 0.00 0.00 46 1016.1
20260906192533 83 97 0.0 0.0 0.00 0.00 0.00 46 1016.1
20260906192027 82 98 0.0 0.0 0.00 0.00 0.00 47 1016.1
20260906191523 82 98 0.0 0.0 0.00 0.00 0.00 46 1016.4
20260906191022 82 98 0.0 0.0 0.00 0.00 0.00 46 1016.5
20260906185521 81 87 0.0 0.0 0.00 0.00 0.00 54 1016.6
20260906185021 80 87 0.0 0.0 0.00 0.00 0.00 55 1016.7
20260906184519 80 87 0.0 0.0 0.00 0.00 0.00 55 1016.7
20260906184018 80 91 0.0 0.0 0.00 0.00 0.00 58 1016.8
20260906183515 79 91 0.0 0.0 0.00 0.00 0.00 56 1016.9
20260906183013 79 91 0.0 0.0 0.00 0.00 0.00 56 1017.1
20260906181513 78 91 0.0 0.0 0.00 0.00 0.00 61 1017.4
20260906180512 78 31 0.0 0.0 0.00 0.00 0.00 61 1017.6
20260906180013 78 30 0.0 0.0 0.00 0.00 0.00 62 1017.8
20260906175512 77 281 0.0 0.0 0.00 0.00 0.00 63 1017.9
20260906175012 77 280 0.0 0.0 0.00 0.00 0.00 64 1017.9
20260906174512 77 280 0.0 0.0 0.00 0.00 0.00 65 1018.0
20260906174013 76 280 0.0 0.0 0.00 0.00 0.00 65 1018.1
20260906173515 76 282 0.0 0.0 0.00 0.00 0.00 65 1018.2
20260906173016 76 282 0.0 0.0 0.00 0.00 0.00 64 1018.5
20260906171512 75 306 0.0 0.0 0.00 0.00 0.00 67 1018.8
20260906171012 75 306 0.0 0.0 0.00 0.00 0.00 66 1018.8
20260906170012 74 306 0.0 0.0 0.00 0.00 0.00 67 1018.9
20260906165012 74 306 0.0 0.0 0.00 0.00 0.00 68 1018.9
20260906164513 74 302 0.0 0.0 0.00 0.00 0.00 69 1018.9
20260906163506 73 336 0.0 0.0 0.00 0.00 0.00 70 1018.9
20260906163001 73 292 0.0 0.0 0.00 0.00 0.00 70 1018.9
20260906162453 73 292 0.0 0.0 0.00 0.00 0.00 69 1019.0
20260906161441 72 274 0.0 0.0 0.00 0.00 0.00 70 1018.9
20260906160934 72 233 0.0 2.0 0.00 0.00 0.00 70 1018.9
20260906160427 72 270 0.0 4.0 0.00 0.00 0.00 70 1019.0
20260906155922 72 265 0.0 4.0 0.00 0.00 0.00 70 1018.9
20260906155416 71 335 0.0 0.0 0.00 0.00 0.00 71 1019.0
20260906154911 71 335 0.0 1.0 0.00 0.00 0.00 71 1018.9
20260906153857 71 351 0.0 0.0 0.00 0.00 0.00 71 1018.9
20260906152845 71 355 0.0 4.0 0.00 0.00 0.00 71 1019.0
20260906152340 70 324 0.0 4.0 0.00 0.00 0.00 72 1019.2
20260906151835 70 0 0.0 0.0 0.00 0.00 0.00 73 1019.2
20260906151329 70 5 0.0 1.0 0.00 0.00 0.00 73 1019.2
20260906150823 70 5 0.0 1.0 0.00 0.00 0.00 73 1019.2
20260906150316 69 281 0.0 0.0 0.00 0.00 0.00 74 1019.2
20260906145810 69 274 0.0 0.0 0.00 0.00 0.00 75 1019.3
20260906145306 69 272 0.0 0.0 0.00 0.00 0.00 76 1019.2
20260906144757 68 270 0.0 0.0 0.00 0.00 0.00 77 1019.2
20260906144252 68 309 0.0 0.0 0.00 0.00 0.00 78 1019.2
20260906143747 67 296 0.0 0.0 0.00 0.00 0.00 79 1019.0
20260906143239 67 239 0.0 0.0 0.00 0.00 0.00 80 1018.9
20260906142734 67 238 0.0 0.0 0.00 0.00 0.00 81 1019.0
20260906142228 66 297 0.0 0.0 0.00 0.00 0.00 82 1019.2
20260906141722 66 298 0.0 1.0 0.00 0.00 0.00 83 1019.2
20260906141216 65 298 0.0 1.0 0.00 0.00 0.00 83 1019.0
20260906140203 64 298 0.0 0.0 0.00 0.00 0.00 85 1019.2
20260906135659 64 298 0.0 0.0 0.00 0.00 0.00 85 1019.0
20260906135152 64 298 0.0 0.0 0.00 0.00 0.00 85 1019.0
20260906134645 64 298 0.0 0.0 0.00 0.00 0.00 85 1018.9
20260906134140 63 298 0.0 0.0 0.00 0.00 0.00 85 1018.9
20260906133129 63 298 0.0 0.0 0.00 0.00 0.00 84 1019.0
20260906132622 63 298 0.0 0.0 0.00 0.00 0.00 84 1018.9
20260906131610 63 298 0.0 0.0 0.00 0.00 0.00 83 1018.7
20260906131104 62 298 0.0 0.0 0.00 0.00 0.00 83 1018.6
20260906130558 62 298 0.0 0.0 0.00 0.00 0.00 83 1018.6
20260906130053 62 298 0.0 0.0 0.00 0.00 0.00 82 1018.6
20260906125548 62 298 0.0 0.0 0.00 0.00 0.00 82 1018.6
20260906125040 62 298 0.0 0.0 0.00 0.00 0.00 81 1018.5
20260906124534 62 298 0.0 0.0 0.00 0.00 0.00 81 1018.5
20260906123521 62 298 0.0 0.0 0.00 0.00 0.00 81 1018.6
20260906123017 62 298 0.0 0.0 0.00 0.00 0.00 81 1018.6
20260906122511 62 298 0.0 0.0 0.00 0.00 0.00 81 1018.6
20260906122004 62 298 0.0 0.0 0.00 0.00 0.00 80 1018.7
20260906121457 63 298 0.0 0.0 0.00 0.00 0.00 80 1018.8
20260906120445 63 298 0.0 0.0 0.00 0.00 0.00 80 1018.6
20260906115939 63 298 0.0 0.0 0.00 0.00 0.00 80 1018.5
20260906115435 63 298 0.0 0.0 0.00 0.00 0.00 80 1018.5
20260906114422 63 298 0.0 0.0 0.00 0.00 0.00 79 1018.7
20260906113916 63 298 0.0 0.0 0.00 0.00 0.00 79 1018.7
20260906112905 63 298 0.0 0.0 0.00 0.00 0.00 79 1018.7
20260906112359 64 298 0.0 0.0 0.00 0.00 0.00 79 1018.6
20260906111852 64 298 0.0 0.0 0.00 0.00 0.00 78 1018.5
20260906110839 64 298 0.0 0.0 0.00 0.00 0.00 78 1018.5
20260906110334 64 298 0.0 0.0 0.00 0.00 0.00 78 1018.3
20260906105829 64 298 0.0 0.0 0.00 0.00 0.00 77 1018.2
20260906105322 64 298 0.0 0.0 0.00 0.00 0.00 77 1018.2
20260906104816 65 298 0.0 0.0 0.00 0.00 0.00 76 1018.0
20260906104309 65 298 0.0 0.0 0.00 0.00 0.00 75 1018.2
20260906103804 65 298 0.0 0.0 0.00 0.00 0.00 74 1018.3
20260906103257 65 298 0.0 0.0 0.00 0.00 0.00 73 1018.1
20260906102751 65 298 0.0 0.0 0.00 0.00 0.00 72 1017.9
20260906101233 65 298 0.0 0.0 0.00 0.00 0.00 70 1018.0
20260906100728 66 298 0.0 0.0 0.00 0.00 0.00 70 1018.0
20260906100221 66 298 0.0 0.0 0.00 0.00 0.00 69 1018.1
20260906095716 66 298 0.0 0.0 0.00 0.00 0.00 69 1018.1
20260906095210 66 298 0.0 0.0 0.00 0.00 0.00 69 1018.2
20260906094703 66 298 0.0 0.0 0.00 0.00 0.00 68 1018.1
20260906094158 67 298 0.0 0.0 0.00 0.00 0.00 67 1018.1
20260906093153 67 298 0.0 0.0 0.00 0.00 0.00 66 1018.1
20260906092654 67 298 0.0 0.0 0.00 0.00 0.00 65 1018.0
20260906092155 67 298 0.0 0.0 0.00 0.00 0.00 64 1018.1
20260906091654 67 298 0.0 0.0 0.00 0.00 0.00 64 1018.0
20260906091152 67 298 0.0 0.0 0.00 0.00 0.00 64 1018.0
20260906090652 68 298 0.0 0.0 0.00 0.00 0.00 63 1018.0
20260906090151 68 298 0.0 0.0 0.00 0.00 0.00 63 1018.0
20260906085653 68 298 0.0 0.0 0.00 0.00 0.00 62 1017.8
20260906085151 68 298 0.0 0.0 0.00 0.00 0.00 62 1017.9
20260906084652 68 298 0.0 0.0 0.00 0.00 0.00 61 1017.8
20260906084147 68 298 0.0 0.0 0.00 0.00 0.00 61 1017.5
20260906083148 68 298 0.0 0.0 0.00 0.00 0.00 60 1017.3
20260906082647 68 298 0.0 0.0 0.00 0.00 0.00 61 1017.4
20260906081647 68 298 0.0 0.0 0.00 0.00 0.00 60 1017.5
20260906081147 68 298 0.0 0.0 0.00 0.00 0.00 60 1017.5
20260906080648 68 298 0.0 0.0 0.00 0.00 0.00 60 1017.5
20260906075644 69 298 0.0 0.0 0.00 0.00 0.00 59 1017.4
20260906075146 69 244 0.0 0.0 0.00 0.00 0.00 58 1017.5
20260906074144 69 244 0.0 0.0 0.00 0.00 0.00 55 1017.4
20260906073644 69 244 0.0 0.0 0.00 0.00 0.00 55 1017.4
20260906073143 69 244 0.0 0.0 0.00 0.00 0.00 55 1017.4
20260906072644 69 244 0.0 0.0 0.00 0.00 0.00 54 1017.3
20260906072143 70 244 0.0 0.0 0.00 0.00 0.00 54 1017.2
20260906071643 70 244 0.0 0.0 0.00 0.00 0.00 54 1017.2
20260906071137 70 253 0.0 0.0 0.00 0.00 0.00 53 1017.2
20260906070126 71 253 0.0 0.0 0.00 0.00 0.00 52 1017.2
20260906065619 71 253 0.0 0.0 0.00 0.00 0.00 52 1017.3
20260906065112 71 253 0.0 0.0 0.00 0.00 0.00 52 1017.4
20260906064607 72 253 0.0 0.0 0.00 0.00 0.00 52 1017.3
20260906064102 72 253 0.0 0.0 0.00 0.00 0.00 51 1017.4
20260906063555 72 253 0.0 0.0 0.00 0.00 0.00 51 1017.3
20260906063051 73 253 0.0 0.0 0.00 0.00 0.00 51 1017.2
20260906062543 73 253 0.0 0.0 0.00 0.00 0.00 50 1017.2
20260906062037 73 253 0.0 0.0 0.00 0.00 0.00 49 1017.2
20260906061531 73 253 0.0 0.0 0.00 0.00 0.00 49 1017.3
20260906060518 73 253 0.0 0.0 0.00 0.00 0.00 48 1017.2
20260906055003 73 253 0.0 0.0 0.00 0.00 0.00 48 1017.3
20260906054455 73 253 0.0 0.0 0.00 0.00 0.00 48 1017.5
20260906053949 73 253 0.0 0.0 0.00 0.00 0.00 47 1017.6
20260906053448 73 253 0.0 0.0 0.00 0.00 0.00 46 1017.8
20260906052446 73 253 0.0 0.0 0.00 0.00 0.00 46 1017.6
20260906051943 73 253 0.0 0.0 0.00 0.00 0.00 45 1017.6
20260906050439 73 253 0.0 0.0 0.00 0.00 0.00 45 1018.2
20260906045935 73 244 0.0 0.0 0.00 0.00 0.00 45 1018.2
20260906044429 73 242 0.0 0.0 0.00 0.00 0.00 44 1017.8
20260906043930 74 14 0.0 0.0 0.00 0.00 0.00 44 1017.8
20260906043429 74 14 0.0 0.0 0.00 0.00 0.00 43 1017.5
20260906042926 74 14 0.0 0.0 0.00 0.00 0.00 43 1017.3
20260906042426 74 14 0.0 0.0 0.00 0.00 0.00 42 1017.4
20260906041924 75 14 0.0 0.0 0.00 0.00 0.00 41 1017.4
20260906041424 75 14 0.0 0.0 0.00 0.00 0.00 40 1017.2
20260906040920 75 14 0.0 0.0 0.00 0.00 0.00 40 1016.9
20260906035420 76 14 0.0 0.0 0.00 0.00 0.00 39 1016.8
20260906034920 76 14 0.0 0.0 0.00 0.00 0.00 39 1016.8
20260906034419 77 14 0.0 0.0 0.00 0.00 0.00 38 1016.7
20260906033419 77 14 0.0 0.0 0.00 0.00 0.00 37 1016.7
20260906032920 78 14 0.0 0.0 0.00 0.00 0.00 37 1016.6
20260906032416 78 14 0.0 0.0 0.00 0.00 0.00 36 1016.6
20260906031915 78 14 0.0 0.0 0.00 0.00 0.00 36 1016.5
20260906031416 79 14 0.0 0.0 0.00 0.00 0.00 36 1016.5
20260906030915 79 14 0.0 0.0 0.00 0.00 0.00 35 1016.4
20260906030415 80 14 0.0 0.0 0.00 0.00 0.00 35 1016.2
20260906025416 80 14 0.0 0.0 0.00 0.00 0.00 34 1016.0
20260906024916 81 14 0.0 0.0 0.00 0.00 0.00 34 1016.1
20260906024416 81 14 0.0 0.0 0.00 0.00 0.00 33 1016.0
20260906023909 81 13 0.0 1.0 0.00 0.00 0.00 32 1015.9
20260906023405 81 327 0.0 1.0 0.00 0.00 0.00 32 1015.9
20260906022906 82 355 0.0 3.0 0.00 0.00 0.00 32 1015.8
20260906022406 82 340 0.0 3.0 0.00 0.00 0.00 32 1015.8
20260906021907 82 327 0.0 3.0 0.00 0.00 0.00 32 1015.7
20260906021404 82 345 0.0 1.0 0.00 0.00 0.00 32 1015.8
20260906020903 83 330 0.0 1.0 0.00 0.00 0.00 31 1015.7
20260906020403 83 326 0.0 1.0 0.00 0.00 0.00 30 1015.5
20260906015402 84 311 0.0 3.0 0.00 0.00 0.00 30 1015.4
20260906014901 84 348 0.0 3.0 0.00 0.00 0.00 29 1015.3
20260906014402 85 355 0.0 0.0 0.00 0.00 0.00 29 1015.3
20260906013901 85 327 0.0 0.0 0.00 0.00 0.00 28 1015.2
20260906013359 85 320 0.0 1.0 0.00 0.00 0.00 28 1015.2
20260906012900 86 0 0.0 1.0 0.00 0.00 0.00 27 1015.2
20260906012359 86 349 0.0 1.0 0.00 0.00 0.00 27 1015.1
20260906010859 88 0 0.0 1.0 0.00 0.00 0.00 26 1015.1
20260906010354 88 282 0.0 0.0 0.00 0.00 0.00 25 1015.0
20260906005848 89 285 0.0 0.0 0.00 0.00 0.00 25 1015.0
20260906005341 89 284 0.0 0.0 0.00 0.00 0.00 25 1015.1
20260906004834 89 280 0.0 0.0 0.00 0.00 0.00 25 1015.0
20260906004329 90 280 0.0 0.0 0.00 0.00 0.00 25 1015.0
20260906003824 90 280 0.0 0.0 0.00 0.00 0.00 25 1015.0
20260906003316 90 280 0.0 0.0 0.00 0.00 0.00 25 1015.0
20260906002811 91 280 0.0 0.0 0.00 0.00 0.00 25 1015.0
20260906002306 91 280 0.0 0.0 0.00 0.00 0.00 25 1014.8
20260906001759 91 280 0.0 0.0 0.00 0.00 0.00 24 1014.8
20260906001254 92 280 0.0 0.0 0.00 0.00 0.00 23 1014.8
20260906000241 92 280 0.0 0.0 0.00 0.00 0.00 23 1014.8
20260905235735 92 280 0.0 0.0 0.00 0.00 0.00 23 1014.7
20260905234723 92 280 0.0 0.0 0.00 0.00 0.00 22 1014.6
20260905234217 92 280 0.0 0.0 0.00 0.00 0.00 22 1014.6
20260905233711 92 280 0.0 0.0 0.00 0.00 0.00 23 1014.6
20260905233206 92 280 0.0 0.0 0.00 0.00 0.00 22 1014.6
20260905232659 92 280 0.0 0.0 0.00 0.00 0.00 23 1014.6
20260905232154 92 280 0.0 0.0 0.00 0.00 0.00 26 1014.6
20260905231648 92 280 0.0 0.0 0.00 0.00 0.00 25 1014.6
20260905231142 92 280 0.0 0.0 0.00 0.00 0.00 23 1014.6
20260905230634 91 280 0.0 0.0 0.00 0.00 0.00 22 1014.6
20260905230129 91 280 0.0 0.0 0.00 0.00 0.00 27 1014.6
20260905225623 92 280 0.0 0.0 0.00 0.00 0.00 25 1014.6
20260905225118 92 280 0.0 0.0 0.00 0.00 0.00 22 1014.5
20260905224612 93 280 0.0 0.0 0.00 0.00 0.00 24 1014.5
20260905223600 92 280 0.0 0.0 0.00 0.00 0.00 22 1014.5
20260905222547 93 279 0.0 0.0 0.00 0.00 0.00 25 1014.5
20260905222043 92 281 0.0 0.0 0.00 0.00 0.00 23 1014.5
20260905221536 93 284 0.0 0.0 0.00 0.00 0.00 24 1014.6
20260905220522 92 279 0.0 0.0 0.00 0.00 0.00 25 1014.7
20260905220018 92 279 0.0 0.0 0.00 0.00 0.00 24 1014.7
20260905215512 91 279 0.0 0.0 0.00 0.00 0.00 25 1015.0
20260905215006 90 279 0.0 0.0 0.00 0.00 0.00 24 1015.1
20260905214459 91 279 0.0 1.0 0.00 0.00 0.00 24 1015.1
20260905213952 91 279 0.0 1.0 0.00 0.00 0.00 23 1015.1
20260905213446 91 333 0.0 0.0 0.00 0.00 0.00 25 1015.1
20260905212941 91 332 0.0 0.0 0.00 0.00 0.00 23 1015.2